| time (UTC) | temp F | wind direction | speed MPH | gust MPH | rain 1hr in | rain 24hr in | rain mn in | humidity % | barometer mb |
| 20260905074602 | 44 | 289 | 0.0 | 1.0 | 0.00 | 0.01 | 0.00 | 89 | 1016.0 |
| 20260905073107 | 45 | 18 | 0.0 | 2.0 | 0.00 | 0.01 | 0.00 | 87 | 1015.9 |
| 20260905071552 | 45 | 150 | 1.0 | 2.0 | 0.00 | 0.01 | 0.00 | 88 | 1015.7 |
| 20260905070047 | 45 | 94 | 2.0 | 3.0 | 0.00 | 0.01 | 0.00 | 89 | 1015.4 |
| 20260905064545 | 45 | 103 | 3.0 | 5.0 | 0.00 | 0.01 | 0.01 | 88 | 1015.3 |
| 20260905063044 | 47 | 149 | 0.0 | 2.0 | 0.00 | 0.01 | 0.01 | 86 | 1015.2 |
| 20260905061558 | 48 | 131 | 0.0 | 2.0 | 0.00 | 0.01 | 0.01 | 82 | 1014.7 |
| 20260905060059 | 48 | 226 | 0.0 | 2.0 | 0.00 | 0.01 | 0.01 | 83 | 1014.6 |
| 20260905054555 | 48 | 3 | 0.0 | 2.0 | 0.00 | 0.04 | 0.01 | 85 | 1014.4 |
| 20260905053042 | 48 | 174 | 0.0 | 0.0 | 0.00 | 0.04 | 0.01 | 84 | 1014.4 |
| 20260905051557 | 48 | 169 | 0.0 | 0.0 | 0.00 | 0.04 | 0.01 | 84 | 1014.5 |
| 20260905050042 | 49 | 169 | 0.0 | 0.0 | 0.00 | 0.04 | 0.01 | 83 | 1014.5 |
| 20260905044543 | 49 | 169 | 0.0 | 0.0 | 0.00 | 0.17 | 0.01 | 82 | 1014.7 |
| 20260905043141 | 49 | 108 | 0.0 | 0.0 | 0.00 | 0.17 | 0.01 | 81 | 1014.7 |
| 20260905041540 | 50 | 90 | 0.0 | 0.0 | 0.00 | 0.17 | 0.01 | 80 | 1014.7 |
| 20260905040039 | 51 | 95 | 0.0 | 0.0 | 0.00 | 0.17 | 0.01 | 78 | 1014.7 |
| 20260905034538 | 52 | 215 | 0.0 | 1.0 | 0.00 | 0.28 | 0.01 | 75 | 1014.6 |
| 20260905033045 | 53 | 226 | 0.0 | 0.0 | 0.00 | 0.28 | 0.01 | 72 | 1014.6 |
| 20260905031543 | 54 | 195 | 0.0 | 1.0 | 0.00 | 0.28 | 0.01 | 70 | 1014.7 |
| 20260905030037 | 55 | 281 | 1.0 | 3.0 | 0.00 | 0.28 | 0.01 | 67 | 1014.4 |
| 20260905024556 | 56 | 246 | 1.0 | 2.0 | 0.00 | 0.38 | 0.01 | 65 | 1014.4 |
| 20260905023040 | 56 | 116 | 0.0 | 2.0 | 0.00 | 0.38 | 0.01 | 65 | 1014.3 |
| 20260905021635 | 57 | 346 | 0.0 | 3.0 | 0.00 | 0.38 | 0.01 | 63 | 1014.1 |
| 20260905020037 | 58 | 277 | 0.0 | 3.0 | 0.00 | 0.38 | 0.01 | 58 | 1014.1 |
| 20260905014535 | 61 | 248 | 0.0 | 0.0 | 0.00 | 0.45 | 0.01 | 52 | 1013.9 |
| 20260905013043 | 61 | 275 | 0.0 | 1.0 | 0.00 | 0.45 | 0.01 | 51 | 1013.8 |
| 20260905011533 | 61 | 268 | 1.0 | 3.0 | 0.00 | 0.45 | 0.01 | 51 | 1013.6 |
| 20260905010033 | 63 | 276 | 2.0 | 4.0 | 0.00 | 0.45 | 0.01 | 44 | 1013.6 |
| 20260905004533 | 65 | 293 | 2.0 | 4.0 | 0.00 | 0.48 | 0.01 | 44 | 1013.6 |
| 20260905003031 | 62 | 280 | 0.0 | 4.0 | 0.00 | 0.48 | 0.01 | 50 | 1013.6 |
| 20260905001530 | 62 | 266 | 0.0 | 4.0 | 0.00 | 0.48 | 0.01 | 48 | 1013.5 |
| 20260905000030 | 63 | 282 | 2.0 | 4.0 | 0.00 | 0.48 | 0.01 | 46 | 1013.5 |
| 20260904234532 | 64 | 287 | 3.0 | 6.0 | 0.00 | 0.49 | 0.01 | 46 | 1013.6 |
| 20260904233026 | 63 | 246 | 0.0 | 5.0 | 0.00 | 0.49 | 0.01 | 44 | 1013.6 |
| 20260904231524 | 62 | 65 | 2.0 | 7.0 | 0.00 | 0.49 | 0.01 | 44 | 1013.7 |
| 20260904230022 | 62 | 72 | 4.0 | 7.0 | 0.00 | 0.49 | 0.01 | 46 | 1013.8 |
| 20260904224521 | 61 | 342 | 2.0 | 5.0 | 0.00 | 0.54 | 0.01 | 46 | 1013.9 |
| 20260904223019 | 61 | 331 | 2.0 | 5.0 | 0.00 | 0.54 | 0.01 | 49 | 1014.0 |
| 20260904221518 | 61 | 314 | 1.0 | 6.0 | 0.00 | 0.54 | 0.01 | 50 | 1014.0 |
| 20260904220018 | 61 | 61 | 2.0 | 6.0 | 0.00 | 0.54 | 0.01 | 51 | 1014.0 |
| 20260904214517 | 60 | 276 | 3.0 | 7.0 | 0.00 | 0.54 | 0.01 | 51 | 1014.0 |
| 20260904213015 | 61 | 324 | 2.0 | 7.0 | 0.00 | 0.54 | 0.01 | 55 | 1014.0 |
| 20260904211613 | 61 | 295 | 4.0 | 9.0 | 0.00 | 0.54 | 0.01 | 57 | 1013.9 |
| 20260904210011 | 59 | 345 | 6.0 | 11.0 | 0.00 | 0.54 | 0.01 | 61 | 1013.8 |
| 20260904204509 | 59 | 312 | 6.0 | 11.0 | 0.00 | 0.54 | 0.01 | 63 | 1013.9 |
| 20260904203009 | 59 | 23 | 5.0 | 11.0 | 0.00 | 0.54 | 0.01 | 62 | 1013.9 |
| 20260904201504 | 58 | 304 | 7.0 | 13.0 | 0.00 | 0.54 | 0.01 | 59 | 1014.0 |
| 20260904200013 | 57 | 273 | 5.0 | 13.0 | 0.00 | 0.54 | 0.01 | 63 | 1014.1 |
| 20260904194503 | 57 | 297 | 5.0 | 8.0 | 0.00 | 0.54 | 0.01 | 63 | 1014.2 |
| 20260904193101 | 57 | 316 | 4.0 | 10.0 | 0.00 | 0.54 | 0.01 | 65 | 1014.4 |
| 20260904191559 | 56 | 293 | 5.0 | 10.0 | 0.00 | 0.54 | 0.01 | 67 | 1014.5 |
| 20260904190056 | 55 | 44 | 5.0 | 11.0 | 0.00 | 0.54 | 0.01 | 70 | 1014.5 |
| 20260904184557 | 54 | 335 | 2.0 | 8.0 | 0.00 | 0.54 | 0.01 | 73 | 1014.7 |
| 20260904183051 | 53 | 311 | 3.0 | 9.0 | 0.00 | 0.54 | 0.01 | 75 | 1014.9 |
| 20260904181548 | 52 | 316 | 5.0 | 9.0 | 0.00 | 0.54 | 0.01 | 77 | 1014.9 |
| 20260904180046 | 51 | 21 | 3.0 | 9.0 | 0.00 | 0.54 | 0.01 | 77 | 1015.0 |
| 20260904174547 | 50 | 283 | 4.0 | 7.0 | 0.00 | 0.54 | 0.01 | 78 | 1015.1 |
| 20260904173045 | 49 | 311 | 2.0 | 7.0 | 0.00 | 0.54 | 0.01 | 79 | 1015.2 |
| 20260904171606 | 50 | 326 | 2.0 | 5.0 | 0.00 | 0.54 | 0.01 | 77 | 1015.1 |
| 20260904170035 | 50 | 79 | 0.0 | 3.0 | 0.00 | 0.54 | 0.01 | 78 | 1014.9 |
| 20260904164532 | 49 | 134 | 0.0 | 1.0 | 0.00 | 0.54 | 0.01 | 82 | 1014.9 |
| 20260904163045 | 46 | 60 | 1.0 | 3.0 | 0.00 | 0.54 | 0.01 | 89 | 1015.0 |
| 20260904161527 | 45 | 82 | 0.0 | 3.0 | 0.00 | 0.54 | 0.01 | 92 | 1014.9 |
| 20260904160026 | 44 | 76 | 0.0 | 3.0 | 0.01 | 0.54 | 0.01 | 97 | 1014.9 |
| 20260904154524 | 43 | 100 | 0.0 | 1.0 | 0.01 | 0.54 | 0.01 | 97 | 1014.9 |
| 20260904153031 | 41 | 125 | 0.0 | 3.0 | 0.01 | 0.54 | 0.01 | 97 | 1015.0 |
| 20260904151534 | 41 | 89 | 0.0 | 1.0 | 0.00 | 0.53 | 0.00 | 97 | 1014.8 |
| 20260904144520 | 40 | 144 | 0.0 | 3.0 | 0.00 | 0.53 | 0.00 | 97 | 1014.6 |
| 20260904143021 | 39 | 134 | 0.0 | 4.0 | 0.00 | 0.53 | 0.00 | 97 | 1014.5 |
| 20260904141516 | 39 | 127 | 0.0 | 2.0 | 0.00 | 0.53 | 0.00 | 97 | 1014.3 |
| 20260904140014 | 39 | 103 | 0.0 | 2.0 | 0.00 | 0.53 | 0.00 | 97 | 1014.1 |
| 20260904134510 | 39 | 138 | 0.0 | 1.0 | 0.00 | 0.53 | 0.00 | 97 | 1013.9 |
| 20260904133009 | 39 | 226 | 0.0 | 1.0 | 0.00 | 0.53 | 0.00 | 96 | 1013.7 |
| 20260904131505 | 40 | 155 | 0.0 | 2.0 | 0.00 | 0.53 | 0.00 | 97 | 1013.5 |
| 20260904130005 | 40 | 129 | 0.0 | 2.0 | 0.00 | 0.53 | 0.00 | 96 | 1013.3 |
| 20260904124601 | 40 | 9 | 0.0 | 1.0 | 0.00 | 0.56 | 0.00 | 96 | 1012.9 |
| 20260904123100 | 40 | 8 | 0.0 | 1.0 | 0.00 | 0.56 | 0.00 | 96 | 1012.7 |
| 20260904121557 | 40 | 288 | 0.0 | 1.0 | 0.00 | 0.56 | 0.00 | 96 | 1012.8 |
| 20260904120105 | 40 | 287 | 0.0 | 1.0 | 0.00 | 0.56 | 0.00 | 96 | 1012.2 |
| 20260904114553 | 41 | 297 | 0.0 | 0.0 | 0.00 | 0.63 | 0.00 | 96 | 1012.2 |
| 20260904113052 | 41 | 297 | 0.0 | 1.0 | 0.00 | 0.63 | 0.00 | 96 | 1011.8 |
| 20260904111551 | 41 | 13 | 0.0 | 0.0 | 0.00 | 0.63 | 0.00 | 96 | 1012.1 |
| 20260904110050 | 41 | 65 | 0.0 | 1.0 | 0.00 | 0.63 | 0.00 | 96 | 1012.0 |
| 20260904104552 | 41 | 258 | 0.0 | 2.0 | 0.00 | 0.70 | 0.00 | 96 | 1011.9 |
| 20260904103046 | 40 | 245 | 1.0 | 3.0 | 0.00 | 0.70 | 0.00 | 96 | 1011.5 |
| 20260904101545 | 40 | 321 | 0.0 | 1.0 | 0.00 | 0.70 | 0.00 | 95 | 1011.4 |
| 20260904100042 | 41 | 274 | 0.0 | 1.0 | 0.00 | 0.70 | 0.00 | 95 | 1011.5 |
| 20260904094539 | 41 | 248 | 0.0 | 1.0 | 0.00 | 0.70 | 0.00 | 95 | 1011.2 |
| 20260904093038 | 42 | 190 | 0.0 | 1.0 | 0.00 | 0.70 | 0.00 | 94 | 1011.3 |
| 20260904091536 | 42 | 327 | 0.0 | 1.0 | 0.00 | 0.70 | 0.00 | 95 | 1011.0 |
| 20260904090034 | 43 | 242 | 0.0 | 0.0 | 0.00 | 0.70 | 0.00 | 95 | 1011.0 |
| 20260904083030 | 43 | 107 | 0.0 | 2.0 | 0.00 | 0.70 | 0.00 | 94 | 1010.4 |
| 20260904081528 | 43 | 112 | 0.0 | 0.0 | 0.00 | 0.70 | 0.00 | 94 | 1010.7 |
| 20260904080038 | 43 | 264 | 0.0 | 0.0 | 0.00 | 0.70 | 0.00 | 93 | 1010.3 |